Regional Weather Roundup
Issued by NWS Kansas City/Pleasant Hill, MO

Home | Current Version | Previous Version | Graphics & Text | Print | Product List | Glossary Off
Versions: 1 2 3 4 5 6 7 8 9 10 11 12 13 14 15 16 17 18 19 20 21 22 23 24 25 26 27 28 29 30 31 32 33 34 35 36 37 38 39 40 41 42 43 44 45 46 47 48 49 50

521
ASUS43 KEAX 111810
RWREAX

WEATHER ROUNDUP FOR EASTERN KANSAS AND NORTHWEST MISSOURI
NATIONAL WEATHER SERVICE KANSAS CITY/PLEASANT HILL MO
1200 PM CST MON DEC 11 2017

KSZ040-057-103>105-MOZ028-029-037-043-111900-
...KANSAS CITY METROPOLITAN AREA...

CITY           SKY/WX    TMP DP  RH WIND       PRES   REMARKS
K.C. INTL      MOSUNNY   56  24  29 NW23G36   29.95F
6HR MIN TEMP:  36; 6HR MAX TEMP:  56;

K.C. DOWNTOWN  MOSUNNY   57  23  26 NW23G38   29.94F
6HR MIN TEMP:  33; 6HR MAX TEMP:  57;

LEES SUMMIT    CLOUDY    53  21  28 NW21G31   29.96F
6HR MIN TEMP:  40; 6HR MAX TEMP:  54;

OLATHE - IXD   MOSUNNY   52  21  29 W15       30.00F
6HR MIN TEMP:  34; 6HR MAX TEMP:  53;

OLATHE - OJC   PTSUNNY   52  20  28 NW12G26   29.98F
6HR MIN TEMP:  35; 6HR MAX TEMP:  53;

LAWRENCE       CLOUDY    57  21  24 W22G33    29.99F

$$

MOZ001>008-011>017-020>025-030>033-038>040-044>046-053-054-111900-
...NORTHERN AND CENTRAL MISSOURI...

CITY           SKY/WX    TMP DP  RH WIND       PRES   REMARKS
ST. JOSEPH     SUNNY     54  27  35 NW33G40   29.96S
6HR MIN TEMP:  28; 6HR MAX TEMP:  55;

MOSBY          CLEAR     54  21  28 NW22G32   29.94F
WARRENSBURG    CLOUDY    52  19  28 NW15G28   29.95F
WHITEMAN AFB   PTSUNNY   51  19  29 NW16G23   29.89F
6HR MIN TEMP:  37; 6HR MAX TEMP:  52;

CLINTON        CLOUDY    52  19  28 NW13      29.97F
SEDALIA        CLOUDY    51  24  34 NW16G28   29.93F
6HR MIN TEMP:  39; 6HR MAX TEMP:  53;

WARSAW         NOT AVBL
CHILLICOTHE      N/A     53  27  36 NW22G37   29.89F
6HR MIN TEMP:  36; 6HR MAX TEMP:  54;

KIRKSVILLE     SUNNY     50  29  44 NW30G40   29.80F
6HR MIN TEMP:  32; 6HR MAX TEMP:  51;


$$

MOZ041-047>049-056>058-063>065-088>090-097-111900-
...EASTERN AND SOUTHERN MISSOURI...

CITY           SKY/WX    TMP DP  RH WIND       PRES   REMARKS
ST. LOUIS INTL PTSUNNY   57  23  26 W20G28    29.78F
6HR MIN TEMP:  33; 6HR MAX TEMP:  58;

SPIRIT OF STL  PTSUNNY   58  23  26 W14G26    29.78F
COLUMBIA       CLOUDY    51  20  29 W21G33    29.87S
JEFFERSON CITY CLOUDY    53  20  27 W24G36    29.88S
ROLLA          SUNNY     59  19  21 W20G31    29.86F
OSAGE BEACH    MOSUNNY   57  21  24 W20G26    29.92S
SPRINGFIELD    SUNNY     61  18  18 W16       29.98F
BRANSON        MOSUNNY   64  14  14 W17G26    30.00F
JOPLIN         CLOUDY    58  21  24 W16       30.04F
WEST PLAINS    SUNNY     62  21  20 W14G24    29.94F

$$

IAZ060-094-KSZ022-034>040-054-083-096-NEZ052-066-093-111900-
...KANSAS...SOUTHEAST NEBRASKA AND IOWA...

CITY           SKY/WX    TMP DP  RH WIND       PRES   REMARKS
TOPEKA         PTSUNNY   57  20  23 NW26G37   30.01F
6HR MIN TEMP:  31; 6HR MAX TEMP:  58;

MANHATTAN      MOSUNNY   59  18  20 N16G26    30.07S
EMPORIA        CLOUDY    58  14  17 NW17G25   30.06F
CHANUTE        MOSUNNY   59  16  18 NW14      30.05F
WICHITA        MOSUNNY   62  14  15 N18       30.12F
OMAHA          CLOUDY    48  31  51 NW36G44   29.96S
LINCOLN        PTSUNNY   51  28  41 NW28G43   30.05S
FALLS CITY     SUNNY     54  25  32 NW28G38   29.98S
LAMONI         CLOUDY    47  29  49 NW32G45   29.87R
DES MOINES     LGT RAIN  45  30  55 NW22G32   29.82R

$$





USA.gov is the U.S. government's official web portal to all federal, state and local government web resources and services.